DateTimeUTC,F1_A11,F1_S11,BsB_S11,BsG_S11,BsR_S11,BbsB_S11,BbsG_S11,BbsR_S11,BaB_A11,BaG_A11,BaR_A11,Tu_S11,T_S11,Uu_S11,U_S11,P_S11,T1_A11
2021-06-23T03:00:00Z,00040200,20000000,,,,,,,-000.17,-000.28,0000.22,17.7,24.8,02.9,01.9,0676.0,31.1
2021-06-23T03:01:00Z,00040200,20000000,,,,,,,-000.15,-000.27,-000.22,17.8,24.8,02.9,01.9,0676.0,31.1
2021-06-23T03:02:00Z,00040200,20000000,,,,,,,0002.20,0002.35,0001.40,17.8,24.8,02.9,01.9,0676.0,31.1
2021-06-23T03:03:00Z,00040200,60000000,,,,,,,-001.44,-001.62,-000.96,17.8,24.9,02.9,01.9,0676.0,31.1
2021-06-23T03:04:00Z,00040200,40000000,0000.85,0000.55,0000.38,0000.02,0000.34,0000.30,0000.10,0000.26,0000.03,18.2,24.8,02.9,02.0,0677.0,31.1
2021-06-23T03:05:00Z,00040200,00000000,0000.50,0000.61,0000.32,-000.14,0000.26,0000.34,0000.11,-000.13,-000.40,18.3,24.8,02.9,01.9,0677.1,31.1
2021-06-23T03:06:00Z,00040200,00000000,0000.60,0000.74,0000.62,0000.29,-000.01,0000.23,0000.02,0000.01,0000.70,18.2,24.7,02.8,01.9,0677.1,31.1
2021-06-23T03:07:00Z,00040200,00000000,0001.66,0000.90,0000.59,-000.24,0000.07,0000.17,0000.26,0000.68,-000.05,18.2,24.7,02.8,01.9,0677.1,31.1
2021-06-23T03:08:00Z,00040200,00000000,0001.19,0000.67,0000.75,0000.10,0000.09,0000.16,0000.25,0000.10,0000.31,18.1,24.7,02.7,01.8,0677.1,31.1
2021-06-23T03:09:00Z,00040200,00000000,0000.85,0000.87,0000.69,0000.32,0000.31,0000.31,0000.26,-000.46,0000.41,18.1,24.7,02.8,01.9,0677.1,31.1
2021-06-23T03:10:00Z,00040200,00000000,0001.54,0000.87,0000.70,0000.37,0000.11,0000.10,0000.29,0000.38,-000.36,18.0,24.6,02.7,01.8,0677.1,31.0
2021-06-23T03:11:00Z,00040200,00000000,0000.67,0000.88,0000.69,-000.15,0000.30,-000.20,0000.76,0000.87,0000.38,18.0,24.6,02.6,01.7,0677.1,31.0
2021-06-23T03:12:00Z,00040200,00000000,0001.23,0000.96,0000.62,0000.28,0000.14,0000.26,0000.38,-000.08,0000.68,18.0,24.5,02.6,01.8,0677.1,31.0
2021-06-23T03:13:00Z,00040200,00000000,0001.20,0000.94,0000.50,0000.09,0000.43,-000.01,0000.43,0000.81,0000.47,18.0,24.5,02.7,01.8,0677.1,31.0
2021-06-23T03:14:00Z,00040200,00000000,0001.65,0001.32,0000.82,0000.28,0000.37,-000.10,0000.83,0000.41,0000.55,18.0,24.6,02.7,01.8,0677.1,31.0
2021-06-23T03:15:00Z,00040200,00000000,0001.56,0001.41,0000.65,0000.36,0000.32,0000.31,0000.33,0000.93,0000.53,18.1,24.6,02.5,01.7,0677.1,31.0
2021-06-23T03:16:00Z,00040200,00000000,0001.39,0001.16,0000.62,0000.17,-000.02,-000.08,0000.25,0000.44,0000.32,18.2,24.6,02.6,01.7,0677.1,31.1
2021-06-23T03:17:00Z,00040200,00000000,0001.59,0001.02,0000.74,-000.16,-000.01,-000.05,0000.51,0000.42,0000.46,18.2,24.7,02.6,01.8,0677.1,31.1
2021-06-23T03:18:00Z,00040200,00000000,0001.65,0001.29,0000.74,0000.33,0000.15,0000.25,0000.53,0000.59,-000.00,18.3,24.7,02.6,01.8,0677.1,31.1
2021-06-23T03:19:00Z,00040200,00000000,0001.68,0000.96,0000.94,0000.09,0000.45,0000.26,0000.84,0000.48,0000.48,18.3,24.7,02.6,01.8,0677.1,31.1
2021-06-23T03:20:00Z,00040200,00000000,0001.47,0001.37,0001.00,0000.09,0000.06,-000.19,0000.68,0000.38,0000.36,18.2,24.7,02.6,01.8,0677.1,31.1
2021-06-23T03:21:00Z,00040200,00000000,0001.37,0001.14,0000.62,0000.38,0000.21,0000.15,0000.56,0000.69,0000.69,18.2,24.6,02.6,01.7,0677.1,31.1
2021-06-23T03:22:00Z,00040200,00000000,0001.19,0001.19,0000.73,0000.11,0000.47,0000.12,0000.28,0000.08,0000.42,18.1,24.6,02.6,01.8,0677.1,31.1
2021-06-23T03:23:00Z,00040200,00000000,0001.19,0000.98,0000.59,0000.47,0000.37,0000.29,0000.88,0000.93,0000.62,18.1,24.6,02.7,01.8,0677.1,31.0
2021-06-23T03:24:00Z,00040200,00000000,0001.69,0001.08,0000.56,0000.40,0000.30,0000.27,0000.60,0000.69,0000.30,18.0,24.6,02.7,01.8,0677.1,31.0
2021-06-23T03:25:00Z,00040200,00000000,0001.09,0001.38,0000.63,0000.52,0000.52,0000.24,0000.83,0001.20,0000.91,18.0,24.5,02.8,01.9,0677.1,31.0
2021-06-23T03:26:00Z,00040200,00000000,0001.24,0000.76,0000.49,-000.00,0000.07,0000.52,0001.10,0000.52,0000.25,17.9,24.5,02.8,01.9,0677.1,31.0
2021-06-23T03:27:00Z,00040200,00000000,0001.52,0000.90,0000.82,-000.31,0000.21,0000.14,0000.64,0000.58,0000.65,17.9,24.5,02.9,01.9,0677.1,31.0
2021-06-23T03:28:00Z,00040200,00000000,0001.24,0001.27,0000.28,0000.47,0000.22,-000.06,0003.06,0002.69,0002.01,17.9,24.5,03.3,02.2,0677.1,31.0
2021-06-23T03:29:00Z,00040200,00000000,0001.38,0000.90,0000.46,-000.52,0000.24,-000.00,-001.05,-001.11,-000.74,18.0,24.5,03.4,02.3,0677.1,31.0
2021-06-23T03:30:00Z,00040200,00000000,0001.31,0001.16,0000.43,0000.09,0000.31,0000.07,0000.21,0000.32,0000.43,18.1,24.5,03.1,02.1,0677.1,31.0
2021-06-23T03:31:00Z,00040200,00000000,0001.73,0000.98,0000.75,0000.36,0000.32,0000.34,0000.34,0000.50,0000.15,18.1,24.5,03.0,02.1,0677.2,31.1
2021-06-23T03:32:00Z,00040200,00000000,0001.68,0000.79,0000.56,-000.41,0000.01,0000.15,-000.08,0000.29,-000.06,18.2,24.6,03.0,02.0,0677.2,31.1
2021-06-23T03:33:00Z,00040200,00000000,0000.72,0000.92,0000.55,0000.22,0000.29,-000.06,0001.08,0000.19,0000.64,18.3,24.6,03.0,02.1,0677.1,31.1
2021-06-23T03:34:00Z,00040200,00000000,0001.08,0000.71,0000.55,0000.51,0000.36,0000.09,0000.36,0001.03,0000.23,18.3,24.6,03.1,02.1,0677.1,31.1
2021-06-23T03:35:00Z,00040200,00000000,0001.52,0000.81,0000.50,0000.37,-000.06,-000.03,0000.74,0000.46,0000.62,18.2,24.6,03.1,02.1,0677.1,31.1
2021-06-23T03:36:00Z,00040200,00000000,0000.50,0000.92,0000.30,0000.47,0000.17,0000.02,0000.80,0000.78,0000.61,18.2,24.6,03.1,02.1,0677.1,31.0
2021-06-23T03:37:00Z,00040200,00000000,0001.09,0000.84,0000.50,-000.04,0000.26,0000.26,0000.50,0000.61,0000.42,18.2,24.6,03.2,02.2,0677.1,31.0
2021-06-23T03:38:00Z,00040200,00000000,0001.15,0000.82,0000.63,0000.26,-000.18,0000.06,0000.54,0000.26,0000.53,18.1,24.6,03.3,02.2,0677.1,31.0
2021-06-23T03:39:00Z,00040200,00000000,0001.32,0000.68,0000.75,0000.61,0000.14,0000.18,0000.82,0000.69,0000.35,18.1,24.5,03.4,02.3,0677.1,31.0
2021-06-23T03:40:00Z,00040200,00000000,0000.91,0000.74,0000.50,0000.54,0000.01,0000.17,0000.59,0000.74,0000.62,18.0,24.5,03.3,02.2,0677.1,31.0
2021-06-23T03:41:00Z,00040200,00000000,0001.60,0000.72,0000.60,0000.74,-000.20,0000.41,0000.35,0000.34,0000.14,18.0,24.5,03.3,02.2,0677.1,31.0
2021-06-23T03:42:00Z,00040200,00000000,0001.67,0000.65,0000.42,0000.20,0000.11,-000.08,0000.89,0000.18,0000.43,17.9,24.5,03.3,02.2,0677.0,31.0
2021-06-23T03:43:00Z,00040200,00000000,0001.53,0000.80,0000.66,0000.41,0000.04,0000.40,0000.28,0000.63,0000.65,17.9,24.4,03.4,02.3,0677.0,31.0
2021-06-23T03:44:00Z,00040200,00000000,0001.48,0000.62,0000.57,-000.05,-000.03,0000.03,0000.71,0000.95,0000.75,18.0,24.4,03.5,02.3,0677.0,31.0
2021-06-23T03:45:00Z,00040200,00000000,0001.30,0000.71,0000.40,-000.01,0000.00,0000.08,0000.81,0000.50,0000.03,18.1,24.5,03.4,02.3,0677.0,31.0
2021-06-23T03:46:00Z,00040200,00000000,0001.39,0000.88,0000.57,0000.32,0000.25,0000.01,0000.95,0000.90,0000.88,18.2,24.5,03.5,02.4,0677.0,31.0
2021-06-23T03:47:00Z,00040200,00000000,0000.90,0001.25,0000.22,-000.10,0000.16,0000.11,0000.37,0000.27,0000.41,18.2,24.6,03.6,02.4,0677.1,31.0
2021-06-23T03:48:00Z,00040200,00000000,0000.89,0000.88,0000.44,-000.14,-000.05,0000.02,0000.66,0000.99,0000.25,18.3,24.6,03.5,02.4,0677.1,31.1
2021-06-23T03:49:00Z,00040200,00000000,0001.07,0000.93,0000.46,0000.41,0000.12,-000.20,0000.62,-000.10,0000.27,18.3,24.6,03.6,02.4,0677.0,31.1
2021-06-23T03:50:00Z,00040200,00000000,0001.34,0000.92,0000.59,-000.47,0000.07,0000.17,0000.23,0001.02,0000.49,18.3,24.6,03.6,02.4,0677.0,31.1
2021-06-23T03:51:00Z,00040200,00000000,0001.54,0000.77,0000.51,-000.18,0000.09,0000.22,0000.28,0000.15,0000.24,18.2,24.6,03.6,02.4,0677.0,31.1
2021-06-23T03:52:00Z,00040200,00000000,0001.50,0000.88,0000.06,0000.99,0000.25,-000.13,0000.85,0001.00,0000.72,18.2,24.6,03.6,02.4,0677.1,31.0
2021-06-23T03:53:00Z,00040200,00000000,0001.20,0000.73,0000.48,0000.20,0000.08,0000.04,0000.27,-000.08,0000.43,18.2,24.6,03.6,02.4,0677.1,31.0
2021-06-23T03:54:00Z,00040200,00000000,0000.89,0000.76,0000.30,0000.24,0000.19,0000.12,0000.79,0000.64,0000.25,18.1,24.6,03.6,02.4,0677.1,31.0
2021-06-23T03:55:00Z,00040200,00000000,0001.62,0000.77,0000.74,-000.03,0000.38,0000.19,0000.51,0000.58,0000.47,18.1,24.5,03.6,02.5,0677.1,31.0
2021-06-23T03:56:00Z,00040200,00000000,0001.38,0001.11,0000.45,-000.09,0000.15,0000.02,0001.08,0000.92,0000.12,18.0,24.5,03.8,02.5,0677.0,31.0
2021-06-23T03:57:00Z,00040200,40000000,,,,,,,-000.31,-000.34,0000.11,18.1,24.5,03.3,02.2,0676.9,31.0
2021-06-23T03:58:00Z,00040200,60000000,,,,,,,0000.26,-000.12,0000.33,17.8,24.6,03.6,02.3,0676.1,31.0
2021-06-23T03:59:00Z,00040200,20000000,,,,,,,0000.07,0000.64,0000.22,17.8,24.7,03.5,02.3,0676.1,31.0
